This is the latest recevied weather packets stored in our database for station/object WX4ET. If no packets are shown the sender has not sent any weather packets the latest 10 day(s).
| Time | Temp. | Humidity | Pressure | Rain* | Wind** | Luminosity | Snow |
|---|---|---|---|---|---|---|---|
| 1777816359 | 10.56° C | 55% | 1016.8 hPa | 0 mm | - | 506 W/m² | - |
| 1777816057 | 10.56° C | 58% | 1016.4 hPa | 0 mm | - | 470 W/m² | - |
| 1777815754 | 10.56° C | 58% | 1016.7 hPa | 0 mm | - | 434 W/m² | - |
| 1777815452 | 10° C | 56% | 1016.7 hPa | 0 mm | - | 399 W/m² | - |
| 1777815149 | 11.11° C | 58% | 1016.7 hPa | 0 mm | - | 374 W/m² | - |
| 1777814845 | 10° C | 63% | 1016.8 hPa | 0 mm | - | 342 W/m² | - |
| 1777814541 | 9.44° C | 64% | 1016.8 hPa | 0 mm | - | 58 W/m² | - |
| 1777814238 | 8.89° C | 63% | 1016.7 hPa | 0 mm | - | 309 W/m² | - |
| 1777813935 | 10° C | 64% | 1016.8 hPa | 0 mm | - | 298 W/m² | - |
| 1777813633 | 10.56° C | 63% | 1016.7 hPa | 0 mm | - | 280 W/m² | - |
| 1777813330 | 8.89° C | 70% | 1016.9 hPa | 0 mm | - | 258 W/m² | - |
| 1777813028 | 8.33° C | 69% | 1016.8 hPa | 0 mm | - | 243 W/m² | - |
| 1777812725 | 8.89° C | 72% | 1016.7 hPa | 0 mm | - | 224 W/m² | - |
| 1777812421 | 8.89° C | 73% | 1016.9 hPa | 0 mm | - | 209 W/m² | - |
| 1777812120 | 7.78° C | 76% | 1016.6 hPa | 0 mm | - | 200 W/m² | - |
| 1777811818 | 8.33° C | 76% | 1016.6 hPa | 0 mm | - | 160 W/m² | - |
| 1777811515 | 8.89° C | 74% | 1016.6 hPa | 0 mm | - | 154 W/m² | - |
| 1777811211 | 7.78° C | 77% | 1016.4 hPa | 0 mm | - | 125 W/m² | - |
| 1777810908 | 7.78° C | 78% | 1016.4 hPa | 0 mm | - | 138 W/m² | - |
| 1777810604 | 7.78° C | 78% | 1016.2 hPa | 0 mm | - | 125 W/m² | - |
| 1777810302 | 7.22° C | 80% | 1016.2 hPa | 0 mm | - | 120 W/m² | - |
| 1777809997 | 6.67° C | 81% | 1016.4 hPa | 0 mm | - | 115 W/m² | - |
| 1777809696 | 6.67° C | 82% | 1016.1 hPa | 0 mm | - | 86 W/m² | - |
| 1777809392 | 5.56° C | 85% | 1016 hPa | 0 mm | - | 58 W/m² | - |
| 1777809090 | 5.56° C | 86% | 1016 hPa | 0 mm | - | 47 W/m² | - |
* Rain latest hour (hover to see other rain measurements)
** Current wind speed in m/s (hover to see current wind gust speed)